TimeCST,TemperatureF,Dew PointF,Humidity,Sea Level PressureIn,VisibilityMPH,Wind Direction,Wind SpeedMPH,Gust SpeedMPH,PrecipitationIn,Events,Conditions,WindDirDegrees,DateUTC
12:55 AM,51.4,40.1,65,29.96,10.0,South,11.5,-,N/A,,Clear,170,2012-11-09 06:55:00
1:55 AM,51.1,40.3,67,29.94,10.0,SSE,11.5,-,N/A,,Clear,160,2012-11-09 07:55:00
3:55 AM,49.6,41.4,73,29.93,10.0,SSE,9.2,-,N/A,,Clear,160,2012-11-09 09:55:00
4:55 AM,49.5,41.9,75,29.93,10.0,SSE,10.4,-,N/A,,Clear,160,2012-11-09 10:55:00
5:55 AM,49.3,42.8,78,29.92,10.0,SSE,9.2,-,N/A,,Clear,160,2012-11-09 11:55:00
6:55 AM,48.7,43.7,83,29.92,10.0,SSE,6.9,-,N/A,,Clear,150,2012-11-09 12:55:00
7:55 AM,51.4,45.5,80,29.92,10.0,SSE,10.4,-,N/A,,Clear,160,2012-11-09 13:55:00
8:55 AM,57.7,49.3,73,29.92,10.0,South,13.8,-,N/A,,Clear,190,2012-11-09 14:55:00
9:55 AM,63.5,53.4,70,29.91,10.0,SSW,17.3,24.2,N/A,,Clear,210,2012-11-09 15:55:00
10:55 AM,67.1,55.6,66,29.91,10.0,South,19.6,-,N/A,,Clear,190,2012-11-09 16:55:00
11:55 AM,70.5,57.6,63,29.88,10.0,SSW,19.6,24.2,N/A,,Clear,210,2012-11-09 17:55:00
12:55 PM,73.9,59.0,59,29.84,10.0,SW,18.4,25.3,N/A,,Clear,220,2012-11-09 18:55:00
1:55 PM,74.1,59.9,61,29.83,10.0,South,13.8,24.2,N/A,,Partly Cloudy,190,2012-11-09 19:55:00
2:55 PM,75.0,59.9,59,29.81,10.0,SSW,15.0,-,N/A,,Clear,200,2012-11-09 20:55:00
3:55 PM,73.4,60.4,64,29.80,10.0,South,12.7,-,N/A,,Clear,190,2012-11-09 21:55:00
4:55 PM,70.0,59.2,68,29.80,10.0,South,10.4,-,N/A,,Clear,180,2012-11-09 22:55:00
5:55 PM,66.6,58.5,75,29.81,10.0,South,10.4,-,N/A,,Clear,180,2012-11-09 23:55:00
6:55 PM,64.9,58.1,78,29.82,10.0,South,11.5,-,N/A,,Clear,180,2012-11-10 00:55:00
7:55 PM,67.5,57.4,70,29.83,10.0,South,17.3,25.3,N/A,,Scattered Clouds,190,2012-11-10 01:55:00
8:55 PM,67.8,57.6,70,29.84,10.0,South,16.1,24.2,N/A,,Overcast,190,2012-11-10 02:55:00
9:55 PM,65.7,57.6,75,29.85,10.0,South,18.4,-,N/A,,Clear,190,2012-11-10 03:55:00
10:55 PM,64.0,57.4,79,29.85,10.0,South,13.8,-,N/A,,Clear,190,2012-11-10 04:55:00
11:55 PM,63.0,57.2,81,29.84,10.0,South,13.8,-,N/A,,Clear,180,2012-11-10 05:55:00